Location: Newark
(34.1333°N, 7.9667°W)
Time: 19:02:39
(UTC+00:00)

Tiros 1 - All Passes

Search period start: 18 June 2021 00:00
Search period end: 28 June 2021 00:00
Orbit: 630 x 664 km, 48.4° (Epoch: 18 June)

Date Brightness Start Highest point End Pass type
(mag) Time Alt. Az. Time Alt. Az. Time Alt. Az.
18 Jun - 10:18:05 10° SW 10:22:40 71° SE 10:27:19 10° NE daylight
18 Jun - 12:01:17 10° W 12:05:11 26° NNW 12:09:09 10° NNE daylight
18 Jun - 13:46:10 10° NW 13:48:40 14° N 13:51:11 10° NNE daylight
18 Jun - 15:28:53 10° NNW 15:32:20 20° NNE 15:35:48 10° ENE daylight
18 Jun - 17:10:29 10° NW 17:15:14 65° NE 17:19:59 10° ESE daylight
18 Jun - 18:53:35 10° W 18:57:05 20° SW 19:00:35 10° S daylight
19 Jun - 09:02:56 10° S 09:06:43 25° SE 09:10:31 10° ENE daylight
19 Jun - 10:44:09 10° WSW 10:48:40 51° NNW 10:53:14 10° NE daylight
19 Jun - 12:28:33 10° WNW 12:31:42 17° NNW 12:34:51 10° NNE daylight
19 Jun - 14:12:45 10° NNW 14:15:24 15° N 14:18:02 10° NE daylight
19 Jun - 15:54:33 10° NW 15:58:46 31° NNE 16:03:00 10° E daylight
19 Jun - 17:36:30 10° WNW 17:41:09 55° SW 17:45:50 10° SE daylight
20 Jun - 09:27:53 10° SW 09:32:26 64° SE 09:37:03 10° ENE daylight
20 Jun - 11:10:56 10° W 11:14:54 27° NNW 11:18:55 10° NE daylight
20 Jun - 12:55:50 10° NW 12:58:21 14° N 13:00:52 10° NNE daylight
20 Jun - 14:38:41 10° NNW 14:42:01 19° NNE 14:45:23 10° ENE daylight
20 Jun - 16:20:16 10° NW 16:24:57 60° NE 16:29:41 10° ESE daylight
20 Jun - 18:03:10 10° W 18:06:52 22° SW 18:10:33 10° S daylight
21 Jun - 08:12:54 10° S 08:16:31 23° SE 08:20:09 10° E daylight
21 Jun - 09:53:52 10° WSW 09:58:24 56° NW 10:03:00 10° NE daylight
21 Jun - 11:38:10 10° WNW 11:41:23 18° NNW 11:44:36 10° NNE daylight
21 Jun - 13:22:30 10° NNW 13:25:04 14° N 13:27:38 10° NE daylight
21 Jun - 15:04:21 10° NW 15:08:28 29° NNE 15:12:37 10° E daylight
21 Jun - 16:46:13 10° WNW 16:50:55 61° SW 16:55:36 10° SE daylight
22 Jun - 08:37:42 10° SW 08:42:13 58° SE 08:46:47 10° ENE daylight
22 Jun - 10:20:35 10° W 10:24:37 29° NNW 10:28:42 10° NE daylight
22 Jun - 12:05:29 10° NW 12:08:01 14° N 12:10:34 10° NNE daylight
22 Jun - 13:48:29 10° NNW 13:51:43 18° NNE 13:54:58 10° ENE daylight
22 Jun - 15:30:03 10° NW 15:34:42 55° NE 15:39:22 10° ESE daylight
22 Jun - 17:12:47 10° WNW 17:16:39 25° SW 17:20:30 10° S daylight
23 Jun - 07:22:54 10° S 07:26:19 21° SE 07:29:45 10° E daylight
23 Jun - 09:03:36 10° WSW 09:08:09 61° NW 09:12:45 10° NE daylight
23 Jun - 10:47:48 10° WNW 10:51:04 19° NNW 10:54:22 10° NNE daylight
23 Jun - 12:32:14 10° NNW 12:34:44 14° N 12:37:14 10° NE daylight
23 Jun - 14:14:09 10° NW 14:18:11 27° NNE 14:22:14 10° E daylight
23 Jun - 15:55:58 10° WNW 16:00:40 67° SW 16:05:23 10° SE daylight
24 Jun - 07:47:32 10° SSW 07:52:00 52° SE 07:56:30 10° ENE daylight
24 Jun - 09:30:14 10° W 09:34:21 31° NNW 09:38:28 10° NE daylight
24 Jun - 11:15:08 10° NW 11:17:42 14° N 11:20:16 10° NNE daylight
24 Jun - 12:58:16 10° NNW 13:01:24 17° NNE 13:04:32 10° ENE daylight
24 Jun - 14:39:50 10° NW 14:44:25 50° NNE 14:49:03 10° ESE daylight
24 Jun - 16:22:26 10° WNW 16:26:25 27° SW 16:30:25 10° S daylight
25 Jun - 06:32:55 10° S 06:36:07 19° SE 06:39:19 10° E daylight
25 Jun - 08:13:20 10° WSW 08:17:54 66° NW 08:22:32 10° NE daylight
25 Jun - 09:57:25 10° WNW 10:00:46 19° NNW 10:04:08 10° NNE daylight
25 Jun - 11:41:59 10° NNW 11:44:24 14° N 11:46:51 10° NE daylight
25 Jun - 13:23:57 10° NNW 13:27:53 26° NNE 13:31:51 10° E daylight
25 Jun - 15:05:43 10° NW 15:10:25 74° SW 15:15:10 10° SE daylight
25 Jun - 16:51:23 10° WSW 16:51:59 10° SW 16:52:36 10° SW daylight
26 Jun - 06:57:22 10° SSW 07:01:47 47° SE 07:06:13 10° ENE daylight
26 Jun - 08:39:54 10° W 08:44:03 32° NNW 08:48:15 10° NE daylight
26 Jun - 10:24:46 10° NW 10:27:22 15° N 10:29:59 10° NNE daylight
26 Jun - 12:08:04 10° NNW 12:11:05 17° NNE 12:14:06 10° NE daylight
26 Jun - 13:49:37 10° NW 13:54:09 46° NNE 13:58:43 10° ESE daylight
26 Jun - 15:32:06 10° WNW 15:36:12 30° SW 15:40:20 10° SSE daylight
27 Jun - 05:42:59 10° S 05:45:55 17° SE 05:48:51 10° E daylight
27 Jun - 07:23:04 10° WSW 07:27:40 72° NW 07:32:17 10° NE daylight
27 Jun - 09:07:02 10° WNW 09:10:27 20° NNW 09:13:55 10° NNE daylight
27 Jun - 10:51:42 10° NNW 10:54:04 14° N 10:56:28 10° NNE daylight
27 Jun - 12:33:45 10° NNW 12:37:35 24° NNE 12:41:26 10° ENE daylight
27 Jun - 14:15:28 10° NW 14:20:11 81° SW 14:24:55 10° SE daylight
27 Jun - 16:00:12 10° WSW 16:01:47 12° SW 16:03:22 10° SSW daylight
